Hourly Data Report for October 16, 2015

All times are specified in Local Standard Time (LST). Add 1 hour to adjust for Daylight Saving Time where and when it is observed.

KITCHENER/WATERLOO
ONTARIO

43°27'39.000" N
80°22'43.000" W
321.60 m
6144239
71368
YKF

Download Data

Hourly Data (October 2015)
Hourly Data Report for October 16, 2015
Temp Definition
°C
Dew Point Temp Definition
°C
Rel Hum Definition
%
Wind Dir Definition
10's deg

Wind Spd Definition
km/h
Visibility Definition
km
Stn Press Definition
kPa
Hmdx Definition


Wind Chill Definition


Weather Definition


TIME
00:00 Legend Double Dagger 5.5 4.5 93 27 13 16.1 97.39     LegendNANA
01:00 Legend Double Dagger 5.5 4.5 93 27 15 16.1 97.44     LegendNANA
02:00 Legend Double Dagger 5.0 4.3 95 25 13 16.1 97.48     LegendNANA
03:00 Legend Double Dagger 4.3 3.7 96 26 13 16.1 97.50     LegendNANA
04:00 Legend Double Dagger 3.6 3.0 96 25 8 16.1 97.55     LegendNANA
05:00 Legend Double Dagger 2.7 2.4 98 26 9 16.1 97.62     LegendNANA
06:00 Legend Double Dagger 3.8 3.2 96 27 11 16.1 97.68     LegendNANA
07:00 Legend Double Dagger 3.9 3.6 98 25 9 16.1 97.76     LegendNANA
08:00 Legend Double Dagger 7.2 5.9 91 26 11 16.1 97.83     LegendNANA
09:00 Legend Double Dagger 7.9 6.1 88 26 17 16.1 97.87     LegendNANA
10:00 Legend Double Dagger 9.0 6.2 83 28 18 16.1 97.82     LegendNANA
11:00 Legend Double Dagger 10.3 4.1 65 29 30 16.1 97.81     LegendNANA
12:00 Legend Double Dagger 9.8 4.0 67 28 28 16.1 97.78     LegendNANA
13:00 Legend Double Dagger 8.5 4.1 74 28 26 16.1 97.77     LegendNANA
14:00 Legend Double Dagger 8.2 3.9 74 30 26 16.1 97.76     LegendNANA
15:00 Legend Double Dagger 8.1 4.8 80 28 32 16.1 97.83     LegendNANA
16:00 Legend Double Dagger 6.7 2.0 72 30 26 16.1 97.88     LegendNANA
17:00 Legend Double Dagger 5.2 1.2 76 30 26 16.1 97.94     LegendNANA
18:00 Legend Double Dagger 4.4 0.6 76 30 21 16.1 98.00     LegendNANA
19:00 Legend Double Dagger 4.1 0.9 80 30 13 16.1 98.05     LegendNANA
20:00 Legend Double Dagger 3.5 -1.2 71 30 17 16.1 98.08     LegendNANA
21:00 Legend Double Dagger 3.2 -0.3 78 28 18 16.1 98.10     LegendNANA
22:00 Legend Double Dagger 1.6 -0.5 86 30 11 16.1 98.13     LegendNANA
23:00 Legend Double Dagger 1.3 -0.7 87 30 13 16.1 98.14     LegendNANA

Notes on Data Quality.

Legend

  • E = Estimated
  • M = Missing
  • NA = Not Available
  • ‡ = Partner data that is not subject to review by the National Climate Archives
Date modified: